Location: Plainartige
(45.6866°N, 1.7993°E)
Time: 09:04:31
(UTC+00:00)

Cosmos 1066 Rocket - Visible Passes

Search period start: 16 June 2021 00:00
Search period end: 26 June 2021 00:00
Orbit: 798 x 895 km, 81.2° (Epoch: 15 June)

Date Brightness Start Highest point End Pass type
(mag) Time Alt. Az. Time Alt. Az. Time Alt. Az.
18 Jun 7.6 21:13:37 10° WNW 21:14:27 10° WNW 21:15:17 10° NW visible
19 Jun 7.4 20:59:16 10° WNW 21:01:04 12° WNW 21:02:51 10° NW visible
20 Jun 7.3 20:45:18 10° W 20:47:40 13° WNW 20:50:03 10° NNW visible
21 Jun 7.2 20:31:27 10° W 20:34:16 14° WNW 20:37:06 10° NNW visible
22 Jun 7.2 20:17:42 10° W 20:20:54 16° WNW 20:24:05 10° NNW visible
23 Jun 7.8 03:28:16 10° NE 03:29:20 10° ENE 03:30:24 10° ENE visible
